Date String (YYYY-MM-DD hh:mm:ss) UTC,Instrument flags,absolute air pressure of the measurement (hPa),sample flow rate (lpm),inlet stack bypass flow (lpm),air temperature of the measurement (°C),ambient temperature measured by the external sensor (°C),aerosol sample conditioner tube jacket temperature (°C),OPC LED temperature (°C),internal box temperature (°C),relative humidity of the measurement (%),span deviation,mass concentration of particles derived from Lorenz-Mie calculation of OPC scattering (μg/m³),mass concentration of particles derived from Lorenz-Mie calculation of OPC scattering (μg/m³),mass concentration of particles derived from Lorenz-Mie calculation of OPC scattering (μg/m³)
DateTimeUTC,F1_M11,P_M11,Q1_M11,Q2_M11,T1_M11,T2_M11,T3_M11,T4_M11,T5_M11,U1_M11,ZSPAN_M11,X2_M11,X0_M11,X1_M11
2023-06-19 23:00:00,SystemResetWarning,0823.9,5.00,000.00,029.0,026.1,000.0,037.5,030.7,16.9,0000.0,0004.59,0018.16,0003.61
2023-06-19 23:01:00,SystemResetWarning,0823.9,4.98,000.00,029.1,026.6,000.0,037.5,030.7,15.0,0000.0,0004.62,0017.93,0003.62
2023-06-19 23:02:00,SystemResetWarning,0823.9,5.01,000.00,029.1,027.0,000.0,037.5,030.8,14.5,0000.0,0004.65,0018.26,0003.62
2023-06-19 23:03:00,SystemResetWarning,0823.9,5.01,000.00,029.1,027.3,000.0,037.5,030.9,16.8,0000.0,0004.65,0017.63,0003.62
2023-06-19 23:04:00,SystemResetWarning,0823.9,5.00,000.00,029.2,027.6,000.0,037.6,031.0,17.2,0000.0,0004.66,0016.52,0003.63
2023-06-19 23:05:00,SystemResetWarning,0823.9,4.98,000.00,029.3,027.3,000.0,037.6,031.0,18.2,0000.0,0004.64,0015.36,0003.64
2023-06-19 23:06:00,SystemResetWarning,0823.8,5.00,000.00,029.2,025.3,000.0,037.5,030.8,18.8,0000.0,0004.59,0014.83,0003.64
2023-06-19 23:07:00,SystemResetWarning,0823.8,5.00,000.00,029.2,024.4,000.0,037.5,030.7,18.8,0000.0,0004.57,0015.24,0003.63
2023-06-19 23:08:00,SystemResetWarning,0823.8,5.02,000.00,029.1,024.9,000.0,037.5,030.6,21.3,0000.0,0004.55,0014.71,0003.63
2023-06-19 23:09:00,SystemResetWarning,0823.8,4.99,000.00,029.1,025.3,000.0,037.5,030.5,21.9,0000.0,0004.63,0013.55,0003.63
2023-06-19 23:10:00,SystemResetWarning,0823.8,5.00,000.00,029.1,025.8,000.0,037.5,030.6,21.4,0000.0,0004.65,0013.07,0003.62
2023-06-19 23:11:00,SystemResetWarning,0823.8,5.00,000.00,029.1,026.3,000.0,037.5,030.7,20.5,0000.0,0004.63,0012.66,0003.61
2023-06-19 23:12:00,SystemResetWarning,0823.8,5.01,000.00,029.1,026.8,000.0,037.5,030.8,20.2,0000.0,0004.61,0012.71,0003.60
2023-06-19 23:13:00,SystemResetWarning,0823.9,5.00,000.00,029.1,027.2,000.0,037.5,030.9,20.5,0000.0,0004.61,0012.47,0003.60
2023-06-19 23:14:00,SystemResetWarning,0823.9,4.99,000.00,029.2,027.5,000.0,037.6,031.0,20.3,0000.0,0004.64,0012.60,0003.59
2023-06-19 23:15:00,SystemResetWarning,0823.9,5.00,000.00,029.3,027.8,000.0,037.6,031.0,19.6,0000.0,0004.64,0013.55,0003.57
2023-06-19 23:16:00,SystemResetWarning,0823.9,5.00,000.00,029.3,026.7,000.0,037.6,031.0,20.7,0000.0,0004.65,0014.80,0003.56
2023-06-19 23:17:00,SystemResetWarning,0824.0,5.00,000.00,029.2,024.8,000.0,037.5,030.8,21.4,0000.0,0004.64,0015.83,0003.55
2023-06-19 23:18:00,SystemResetWarning,0823.9,5.01,000.00,029.2,024.6,000.0,037.5,030.8,19.9,0000.0,0004.65,0016.30,0003.55
2023-06-19 23:19:00,SystemResetWarning,0824.0,5.00,000.00,029.1,025.1,000.0,037.5,030.6,19.0,0000.0,0004.61,0016.04,0003.54
2023-06-19 23:20:00,SystemResetWarning,0823.9,5.00,000.00,029.1,025.5,000.0,037.5,030.6,19.1,0000.0,0004.52,0016.34,0003.53
2023-06-19 23:21:00,SystemResetWarning,0823.9,5.00,000.00,029.1,026.0,000.0,037.5,030.7,19.6,0000.0,0004.49,0016.01,0003.52
2023-06-19 23:22:00,SystemResetWarning,0823.9,4.99,000.00,029.1,026.5,000.0,037.5,030.8,19.7,0000.0,0004.53,0016.73,0003.52
2023-06-19 23:23:00,SystemResetWarning,0824.0,5.00,000.00,029.1,026.9,000.0,037.6,030.9,20.2,0000.0,0004.53,0016.69,0003.52
2023-06-19 23:24:00,SystemResetWarning,0824.0,5.01,000.00,029.2,027.3,000.0,037.6,030.9,19.8,0000.0,0004.51,0016.29,0003.52
2023-06-19 23:25:00,SystemResetWarning,0824.0,5.00,000.00,029.2,027.6,000.0,037.6,031.0,20.4,0000.0,0004.47,0015.94,0003.51
2023-06-19 23:26:00,SystemResetWarning,0823.9,4.99,000.00,029.3,026.9,000.0,037.6,031.0,19.9,0000.0,0004.47,0015.64,0003.52
2023-06-19 23:27:00,SystemResetWarning,0823.9,5.00,000.00,029.2,024.9,000.0,037.5,030.8,19.8,0000.0,0004.46,0016.38,0003.51
2023-06-19 23:28:00,SystemResetWarning,0823.9,5.02,000.00,029.2,024.5,000.0,037.5,030.8,20.3,0000.0,0004.47,0015.99,0003.52
2023-06-19 23:29:00,SystemResetWarning,0823.8,5.00,000.00,029.1,025.0,000.0,037.5,030.6,20.8,0000.0,0004.48,0015.63,0003.52
2023-06-19 23:30:00,SystemResetWarning,0823.8,5.01,000.00,029.1,025.4,000.0,037.5,030.6,19.8,0000.0,0004.50,0015.01,0003.52
2023-06-19 23:31:00,SystemResetWarning,0823.8,5.00,000.00,029.1,026.0,000.0,037.5,030.7,19.6,0000.0,0004.52,0015.66,0003.52
2023-06-19 23:32:00,SystemResetWarning,0823.8,5.01,000.00,029.1,026.5,000.0,037.5,030.7,20.6,0000.0,0004.48,0015.93,0003.51
2023-06-19 23:33:00,SystemResetWarning,0823.8,4.99,000.00,029.1,026.9,000.0,037.5,030.8,21.0,0000.0,0004.47,0015.67,0003.51
2023-06-19 23:34:00,SystemResetWarning,0823.8,5.00,000.00,029.2,027.3,000.0,037.6,030.9,20.1,0000.0,0004.43,0015.73,0003.50
2023-06-19 23:35:00,SystemResetWarning,0823.9,5.02,000.00,029.2,027.6,000.0,037.6,031.0,20.7,0000.0,0004.43,0016.67,0003.48
2023-06-19 23:36:00,SystemResetWarning,0823.9,4.99,000.00,029.3,027.8,000.0,037.6,031.1,20.2,0000.0,0004.42,0016.71,0003.46
2023-06-19 23:37:00,SystemResetWarning,0823.8,4.98,000.00,029.3,026.3,000.0,037.6,030.9,20.0,0000.0,0004.41,0016.17,0003.43
2023-06-19 23:38:00,SystemResetWarning,0823.8,5.01,000.00,029.2,024.7,000.0,037.5,030.7,21.0,0000.0,0004.39,0014.37,0003.41
2023-06-19 23:39:00,SystemResetWarning,0823.8,5.01,000.00,029.2,024.8,000.0,037.5,030.7,20.7,0000.0,0004.42,0013.86,0003.38
2023-06-19 23:40:00,SystemResetWarning,0823.8,5.01,000.00,029.1,025.2,000.0,037.5,030.6,20.1,0000.0,0004.46,0013.96,0003.37
2023-06-19 23:41:00,SystemResetWarning,0823.8,4.98,000.00,029.1,025.7,000.0,037.5,030.6,21.7,0000.0,0004.45,0013.82,0003.37
2023-06-19 23:42:00,SystemResetWarning,0823.8,5.00,000.00,029.1,026.2,000.0,037.5,030.7,22.9,0000.0,0004.42,0012.88,0003.36
2023-06-19 23:43:00,SystemResetWarning,0823.8,5.01,000.00,029.1,026.7,000.0,037.6,030.8,22.8,0000.0,0004.41,0013.15,0003.35
2023-06-19 23:44:00,SystemResetWarning,0823.8,5.00,000.00,029.2,027.1,000.0,037.6,030.9,22.3,0000.0,0004.37,0012.85,0003.34
2023-06-19 23:45:00,SystemResetWarning,0823.8,4.98,000.00,029.2,027.4,000.0,037.6,031.0,23.6,0000.0,0004.38,0012.86,0003.34
2023-06-19 23:46:00,SystemResetWarning,0823.8,5.00,000.00,029.3,027.7,000.0,037.6,031.0,23.4,0000.0,0004.34,0012.34,0003.33
2023-06-19 23:47:00,SystemResetWarning,0823.8,5.00,000.00,029.3,027.5,000.0,037.6,031.1,20.7,0000.0,0004.33,0011.82,0003.34
2023-06-19 23:48:00,SystemResetWarning,0823.8,5.00,000.00,029.3,025.5,000.0,037.6,031.0,19.6,0000.0,0004.31,0011.64,0003.34
2023-06-19 23:49:00,SystemResetWarning,0823.8,5.01,000.00,029.3,024.4,000.0,037.6,030.8,20.3,0000.0,0004.29,0011.84,0003.34
2023-06-19 23:50:00,SystemResetWarning,0823.8,5.02,000.00,029.2,024.8,000.0,037.5,030.8,20.6,0000.0,0004.22,0011.70,0003.34
2023-06-19 23:51:00,SystemResetWarning,0823.8,4.99,000.00,029.2,025.3,000.0,037.6,030.6,22.7,0000.0,0004.17,0011.85,0003.34
2023-06-19 23:52:00,SystemResetWarning,0823.8,5.00,000.00,029.1,025.8,000.0,037.6,030.7,22.7,0000.0,0004.18,0012.07,0003.33
2023-06-19 23:53:00,SystemResetWarning,0823.8,5.01,000.00,029.1,026.3,000.0,037.6,030.8,22.1,0000.0,0004.22,0012.32,0003.32
2023-06-19 23:54:00,SystemResetWarning,0823.8,5.00,000.00,029.2,026.8,000.0,037.6,030.8,23.2,0000.0,0004.21,0011.95,0003.30
2023-06-19 23:55:00,SystemResetWarning,0823.8,4.99,000.00,029.2,027.2,000.0,037.6,030.9,24.0,0000.0,0004.18,0012.67,0003.30
2023-06-19 23:56:00,SystemResetWarning,0823.8,5.00,000.00,029.3,027.5,000.0,037.6,031.0,22.3,0000.0,0004.16,0013.21,0003.29
2023-06-19 23:57:00,SystemResetWarning,0823.8,5.00,000.00,029.3,027.5,000.0,037.7,031.1,20.9,0000.0,0004.18,0013.39,0003.29
2023-06-19 23:58:00,SystemResetWarning,0823.8,5.00,000.00,029.3,025.8,000.0,037.6,030.9,23.2,0000.0,0004.19,0014.56,0003.28
2023-06-19 23:59:00,SystemResetWarning,0823.8,5.01,000.00,029.3,024.5,000.0,037.6,030.8,23.8,0000.0,0004.21,0015.07,0003.28
